Home   Weather   Bromley   Past weeks
Flag for United Kingdom

Past Weather in Bromley, England, United Kingdom — Yesterday and Last 2 Weeks

Now
59 °F

Scattered showers. Scattered clouds.


Feels Like: 57 °F
Forecast: 57 / 46 °F
Wind: 12 mph from Southwest

Location: Biggin Hill Airport

Current Time: Oct 16, 2019 at 11:16:13 am

Latest Report: Oct 16, 2019 at 10:20 am


Visibility: N/A

Pressure: 29.56 "Hg

Humidity: 94%

Dew Point: 57 °F

Location of BromleyLocation

Past Weather in Bromley — Graph

°F

Bromley Temperature Yesterday

Maximum temperature yesterday: 57 °F (at 11:50 am)
Minimum temperature yesterday: 50 °F (at 6:20 am)
Average temperature yesterday: 54 °F

High & Low Weather Summary for the Past Weeks

 TemperatureHumidityPressure
High63 °F (Oct 1, 1:50 pm)100% (Oct 1, 11:50 am)30.18 "Hg (Oct 1, 11:50 am)
Low32 °F (Oct 1, 9:20 pm)50% (Oct 2, 11:50 am)29.45 "Hg (Oct 1, 2:20 pm)
Average54 °F87%29.79 "Hg
* Reported Oct 1 9:20 am — Oct 16 9:50 am, Bromley. Weather by CustomWeather, © 2019

Note: Actual official high and low records may vary slightly from our data, if they occured in-between our weather recording intervals... More about our weather records

Advertising

Bromley Weather History for the Previous 24 Hours

Scroll right to see more
 ConditionsComfort  
Time TempWeatherWind HumidityBarometerVisibility
9:50 am
Wed, Oct 16
57 °FScattered showers. Partly sunny.13 mph100%29.56 "HgN/A
9:20 am61 °FPartly sunny.13 mph100%29.56 "Hg2 mi
8:50 am59 °FDrizzle. Fog.17 mph100%29.56 "Hg1 mi
8:20 am59 °FDrizzle. Fog.15 mph100%29.53 "Hg2 mi
7:50 am59 °FDrizzle. Fog.14 mph100%29.56 "Hg1 mi
7:20 am57 °FDrizzle. Fog.14 mph100%29.56 "Hg1 mi
6:50 am57 °FDrizzle. Fog.15 mph100%29.56 "Hg1 mi
6:20 am54 °FDrizzle. Fog.17 mph100%29.56 "Hg2 mi
10:20 pm
Tue, Oct 15
50 °FClear.9 mph94%29.71 "Hg10 mi
9:50 pm50 °FClear.10 mph100%29.71 "Hg10 mi
9:20 pm52 °FClear.7 mph94%29.71 "Hg10 mi
8:50 pm52 °FClear.9 mph94%29.71 "Hg10 mi
8:20 pm52 °FClear.12 mph94%29.71 "Hg10 mi
7:50 pm52 °FClear.10 mph94%29.71 "Hg10 mi
7:20 pm52 °FClear.9 mph94%29.71 "Hg10 mi
6:50 pm52 °FPassing clouds.7 mph94%29.68 "HgN/A
6:20 pm54 °FPassing clouds.9 mph88%29.68 "HgN/A
5:50 pm55 °FScattered clouds.8 mph88%29.68 "HgN/A
5:20 pm55 °FPassing clouds.7 mph88%29.65 "HgN/A
4:50 pm55 °FPassing clouds.10 mph88%29.65 "HgN/A
4:20 pm57 °FPassing clouds.10 mph82%29.65 "HgN/A
3:50 pm57 °FScattered clouds.10 mph88%29.65 "HgN/A
3:20 pm55 °FScattered clouds.7 mph88%29.65 "HgN/A
2:50 pm55 °FScattered clouds.7 mph82%29.65 "HgN/A
2:20 pm57 °FScattered clouds.8 mph82%29.65 "HgN/A
1:50 pm57 °FScattered clouds.8 mph82%29.65 "HgN/A
1:20 pm57 °FScattered clouds.8 mph77%29.65 "HgN/A
12:50 pm57 °FScattered clouds.8 mph88%29.68 "HgN/A
12:20 pm55 °FScattered clouds.10 mph88%29.68 "HgN/A
11:50 am57 °FScattered showers. Scattered clouds.6 mph88%29.68 "HgN/A
11:20 am55 °FScattered clouds.3 mph94%29.65 "HgN/A
Weather by CustomWeather, © 2019

See weather overview